Regional Weather Roundup
Issued by NWS

Home | Current Version | Previous Version | Text Only | Print | Product List | Glossary On
Versions: 1 2 3 4 5 6 7 8 9 10 11 12 13 14 15 16 17 18 19 20 21 22 23 24 25 26 27 28 29 30 31 32 33 34 35 36 37 38 39 40 41 42 43 44 45 46 47 48 49 50
000
ASUS44 KMEG 242310
RWRTN
TENNESSEE HOURLY STATE WEATHER ROUNDUP
NATIONAL WEATHER SERVICE MEMPHIS TN
600 PM CDT THU JUL 24 2014

TNZ002-004-019-021-049-052-054-088>092-250000-
WEST TENNESSEE

CITY           SKY/WX    TMP DP  RH WIND       PRES   REMARKS
MEMPHIS INTL   MOSUNNY   80  56  43 N7        30.00F
NWS MEMPHIS      N/A     81 N/A N/A MISG        N/A
JACKSON        SUNNY     81  60  48 N7        30.00F
DYERSBURG      MOSUNNY   79  55  44 N7        30.01F
UNION CITY     SUNNY     79  61  53 N8        29.99F
PARIS          PTSUNNY   77  59  53 NE7       30.01F
LEXINGTON      SUNNY     79  61  53 N7        29.99S
$$

TNZ008-025-027-028-033-062-065-066-250000-
NORTH MIDDLE TENNESSEE

CITY           SKY/WX    TMP DP  RH WIND       PRES   REMARKS
NASHVILLE      MOSUNNY   82  61  48 NW8       29.97F
DICKSON        SUNNY     79  59  50 N9        30.00F
PORTLAND       MOSUNNY   81  57  44 NE10      29.98F
CLARKSVILLE    MOSUNNY   82  56  40 N10       29.98F
LEBANON        SUNNY     82  62  50 N7        29.96S
SMYRNA         SUNNY     87  63  44 NW8       29.97F
MURFREESBORO   SUNNY     82  63  52 NW5       29.96F
COOKEVILLE     SUNNY     79  66  65 VRB3      29.99S
LIVINGSTON       N/A     74  63  68 N9        30.02S
GALLATIN       MOSUNNY   85  62  45 N10       29.98F
CROSSVILLE     SUNNY     75  64  68 N10G17    30.02S
$$

TNZ061-075-076-078-094-096-097-250000-
SOUTH MIDDLE TENNESSEE

CITY           SKY/WX    TMP DP  RH WIND       PRES   REMARKS
LEWISBURG      SUNNY     82  64  54 N8        29.97F
FAYETTEVILLE   MOSUNNY   81  64  57 N13       29.97S
TULLAHOMA      SUNNY     79  66  65 N10       29.99F
WINCHESTER     MOSUNNY   81  70  69 N10       29.98R
MCMINNVILLE    MOSUNNY   81  70  69 N7        29.98F
COLUMBIA       MOSUNNY   82  66  57 N7        29.97S
SHELBYVILLE    SUNNY     81  66  61 N9        29.98F
$$

TNZ017-018-042-046-047-250000-
NORTHEAST TENNESSEE

CITY           SKY/WX    TMP DP  RH WIND       PRES   REMARKS
TRI CITIES     MOSUNNY   73  65  75 VRB5      29.99S
ELIZABETHTON   MOCLDY    68  64  88 SW3       29.97F
$$

TNZ012-013-036-069-073-074-250000-
CENTRAL EAST TENNESSEE

CITY           SKY/WX    TMP DP  RH WIND       PRES   REMARKS
KNOXVILLE      PTSUNNY   75  71  87 NE6       29.95R
OAK RIDGE      MOSUNNY   81  65  58 N9        29.98R
GATLINBURG     CLOUDY    77  64  65 N8        29.96R
MORRISTOWN     CLEAR     75  64  69 VRB7      29.99S
$$

TNZ083-085-099-250000-
SOUTHEAST TENNESSEE

CITY           SKY/WX    TMP DP  RH WIND       PRES   REMARKS
CHATTANOOGA    MOSUNNY   86  66  51 NW7       29.93S
$$

SKY/WX REPORTED AS FAIR MEANS FEW OR NO CLOUDS BELOW
12 THOUSAND FEET.



USA.gov is the U.S. government's official web portal to all federal, state and local government web resources and services.